Santa Fe, NM

7:58 PM MDT on June 25, 2017 (GMT -0600)
Santa Fe Municipal

Weather History for KSAF - October, 2011

Change the Weather History Date:

Saturday, October 8, 2011

  Actual Average Record
Temperature  
Mean Temperature 44 °F -  
Max Temperature 54 °F 79 °F 79 °F (1978)
Min Temperature 35 °F 34 °F 30 °F (2012)
Degree Days  
Heating Degree Days 21    
Moisture  
Dew Point 32 °F    
Average Humidity 73    
Maximum Humidity 93    
Minimum Humidity 38    
Precipitation  
Precipitation 0.07 in - - ()
Sea Level Pressure  
Sea Level Pressure 29.97 in    
Wind  
Wind Speed 9 mph (WNW)    
Max Wind Speed 15 mph    
Max Gust Speed 16 mph    
Visibility 10 miles    
Events Rain    
Averages and records for this station are not official NWS values.
T = Trace of Precipitation, MM = Missing Value Source: NWS Daily Summary

Daily Weather History Graph

Daily Weather History Graph

Search for Another Location

Airport or City:

Trip Planner

Search our weather history database for the weather conditions in past years. The results will help you decide how hot, cold, wet, or windy it might be!

Date:

Astronomy

Oct. 08, 2011 Rise Set
Actual Time 7:04 AM MDT 6:38 PM MDT
Civil Twilight 6:39 AM MDT 7:04 PM MDT
Nautical Twilight 6:09 AM MDT 7:33 PM MDT
Astronomical Twilight 5:40 AM MDT 8:03 PM MDT
Moon 4:46 PM MDT (10/8) 4:00 AM MDT (10/8)
Length of Visible Light 12h 24m
Length of Day
11h 33m
Waxing Gibbous, 90% of the Moon is Illuminated
Oct 8
Waxing Gibbous
Oct 11
Full
Oct 19
Last Quarter
Oct 26
New
Nov 2
First Quarter

Hourly Weather History & Observations

Time (MDT) Temp. Windchill Dew Point Humidity Pressure Visibility Wind Dir Wind Speed Gust Speed Precip Events Conditions
12:07 AM 39.2 °F 34.2 °F 37.4 °F 93% 29.97 in 10.0 mi West 6.9 mph - 0.00 in Rain Light Rain
12:53 AM 37.0 °F 29.3 °F 35.1 °F 93% 29.88 in 6.0 mi WSW 11.5 mph - 0.06 in Rain Light Rain
1:10 AM 37.4 °F 29.8 °F 33.8 °F 87% 29.99 in 10.0 mi WSW 11.5 mph - 0.01 in Rain Light Rain
1:16 AM 37.4 °F 29.8 °F 35.6 °F 93% 29.99 in 10.0 mi SW 11.5 mph - 0.01 in   Overcast
1:24 AM 37.4 °F 29.8 °F 35.6 °F 93% 29.99 in 10.0 mi SW 11.5 mph - 0.01 in   Overcast
1:37 AM 37.4 °F 32.8 °F 35.6 °F 93% 30.00 in 10.0 mi SSW 5.8 mph - 0.01 in   Overcast
1:53 AM 37.0 °F 31.6 °F 35.1 °F 93% 29.88 in 10.0 mi SE 6.9 mph - 0.01 in   Overcast
2:13 AM 37.4 °F - 35.6 °F 93% 30.00 in 10.0 mi Calm Calm - N/A   Overcast
2:34 AM 37.4 °F 30.8 °F 33.8 °F 87% 30.00 in 10.0 mi SW 9.2 mph - N/A   Overcast
2:53 AM 36.0 °F 30.3 °F 34.0 °F 93% 29.88 in 10.0 mi SW 6.9 mph - N/A   Scattered Clouds
2:57 AM 37.4 °F 31.4 °F 33.8 °F 87% 30.00 in 10.0 mi WSW 8.1 mph - N/A   Mostly Cloudy
3:19 AM 35.6 °F 28.6 °F 33.8 °F 93% 30.00 in 10.0 mi West 9.2 mph - N/A   Scattered Clouds
3:53 AM 36.0 °F 26.7 °F 34.0 °F 93% 29.90 in 10.0 mi WSW 15.0 mph - N/A   Clear
4:53 AM 36.0 °F 28.5 °F 34.0 °F 93% 29.93 in 10.0 mi WSW 10.4 mph - N/A   Partly Cloudy
5:53 AM 35.1 °F 27.4 °F 33.1 °F 92% 29.96 in 10.0 mi West 10.4 mph - N/A   Clear
7:53 AM 36.0 °F - 33.1 °F 89% 30.00 in 10.0 mi Calm Calm - N/A   Partly Cloudy
8:53 AM 39.0 °F 32.8 °F 35.1 °F 86% 29.98 in 10.0 mi West 9.2 mph - N/A   Clear
9:53 AM 45.0 °F 38.5 °F 28.9 °F 53% 29.94 in 10.0 mi NW 13.8 mph - N/A   Clear
10:53 AM 48.0 °F - 28.9 °F 48% 29.94 in 10.0 mi North 11.5 mph - N/A   Clear
11:53 AM 48.0 °F - 27.0 °F 44% 29.96 in 10.0 mi Variable 5.8 mph - N/A   Clear
12:53 PM 48.9 °F - 28.0 °F 44% 29.96 in 10.0 mi NNE 4.6 mph 16.1 mph N/A   Scattered Clouds
1:53 PM 53.1 °F - 28.9 °F 40% 29.92 in 10.0 mi North 9.2 mph - N/A   Partly Cloudy
2:53 PM 53.1 °F - 28.9 °F 40% 29.91 in 10.0 mi North 6.9 mph - N/A   Partly Cloudy
3:53 PM 53.1 °F - 28.0 °F 38% 29.92 in 10.0 mi NNW 5.8 mph 16.1 mph N/A   Partly Cloudy
4:53 PM 51.1 °F - 28.0 °F 41% 29.94 in 10.0 mi North 9.2 mph - N/A   Partly Cloudy
5:53 PM 48.9 °F - 28.9 °F 46% 29.97 in 10.0 mi North 8.1 mph - N/A   Clear
6:53 PM 44.1 °F 39.5 °F 32.0 °F 63% 30.01 in 10.0 mi NNW 8.1 mph - N/A   Clear
7:53 PM 43.0 °F 37.7 °F 30.0 °F 60% 30.01 in 10.0 mi North 9.2 mph - N/A   Clear
8:53 PM 43.0 °F 37.7 °F 30.0 °F 60% 30.03 in 10.0 mi North 9.2 mph - N/A   Mostly Cloudy
9:53 PM 41.0 °F 36.4 °F 30.9 °F 67% 30.02 in 10.0 mi NNE 6.9 mph - N/A   Mostly Cloudy
10:53 PM 41.0 °F 35.8 °F 32.0 °F 70% 30.01 in 10.0 mi North 8.1 mph - N/A   Mostly Cloudy
11:53 PM 39.9 °F 34.5 °F 30.9 °F 70% 30.01 in 10.0 mi NNE 8.1 mph - N/A   Clear